Weather History for Indian Springs, NV

Change the Weather History Date:

Monday, January 21, 2013

  Actual Average (KDRA) Record (KDRA)
Temperature  
Mean Temperature 42 °F -  
Max Temperature 60 °F 55 °F 68 °F (2005)
Min Temperature 24 °F 33 °F 24 °F (2006)
Degree Days  
Heating Degree Days 23    
Moisture  
Dew Point 5 °F    
Average Humidity 27    
Maximum Humidity 45    
Minimum Humidity 8    
Precipitation  
Precipitation 0.00 in - - ()
Sea Level Pressure  
Sea Level Pressure 30.25 in    
Wind  
Wind Speed 2 mph (SW)    
Max Wind Speed 6 mph    
Max Gust Speed -    
Visibility 10 miles    
Events      
Averages and records for this station are not official NWS values.
T = Trace of Precipitation, MM = Missing Value Source: NWS Daily Summary

Daily Weather History Graph

Daily Weather History Graph

Search for Another Location

Airport:

Trip Planner

Search our weather history database for the weather conditions in past years. The results will help you decide how hot, cold, wet, or windy it might be!

Date:

Astronomy

Jan. 21, 2013 Rise Set
Actual Time 6:51 AM PST 4:57 PM PST
Civil Twilight 6:23 AM PST 5:25 PM PST
Nautical Twilight 5:52 AM PST 5:56 PM PST
Astronomical Twilight 5:21 AM PST 6:27 PM PST
Moon 12:40 PM PST (1/21) 2:23 AM PST (1/21)
Length of Visible Light 11h 01m
Length of Day
10h 05m
Waxing Gibbous, 76% of the Moon is Illuminated
Jan 21
Waxing Gibbous
Jan 26
Full
Feb 3
Last Quarter
Feb 9
New
Feb 17
First Quarter

Hourly Weather History & Observations

Time (PST) Temp. Windchill Dew Point Humidity Pressure Visibility Wind Dir Wind Speed Gust Speed Precip Events Conditions
12:58 AM 29.7 °F - 7.0 °F 38% 30.25 in 10.0 mi WSW 2.3 mph - N/A   Clear
1:58 AM 28.0 °F 22.8 °F 5.5 °F 38% 30.25 in 10.0 mi NNE 4.6 mph - N/A   Clear
2:58 AM 27.0 °F - 6.4 °F 42% 30.25 in 10.0 mi Variable 1.2 mph - N/A   Clear
3:58 AM 24.3 °F - 5.5 °F 45% 30.25 in 10.0 mi Variable 2.3 mph - N/A   Clear
4:58 AM 24.8 °F 19.1 °F 5.0 °F 43% 30.26 in 10.0 mi SSW 4.6 mph - N/A   Clear
5:58 AM 25.7 °F 20.1 °F 7.2 °F 45% 30.25 in 10.0 mi SSW 4.6 mph - N/A   Clear
6:58 AM 24.1 °F 19.7 °F 4.6 °F 43% 30.28 in 10.0 mi West 3.5 mph - N/A   Clear
7:58 AM 28.2 °F - 6.1 °F 39% 30.29 in 10.0 mi Calm Calm - N/A   Clear
8:58 AM 34.7 °F - 5.5 °F 29% 30.31 in 10.0 mi NNW 1.2 mph - N/A   Clear
9:58 AM 41.7 °F - 6.1 °F 23% 30.32 in 10.0 mi Calm Calm - N/A   Clear
10:58 AM 48.0 °F - 7.0 °F 19% 30.31 in 10.0 mi Calm Calm - N/A   Clear
11:58 AM 57.2 °F - 3.9 °F 12% 30.27 in 10.0 mi North 1.2 mph - N/A   Clear
12:58 PM 57.7 °F - 1.6 °F 10% 30.24 in 10.0 mi South 2.3 mph - N/A   Clear
1:58 PM 59.5 °F - 1.2 °F 10% 30.23 in 10.0 mi Calm Calm - N/A   Clear
2:58 PM 60.8 °F - 0.1 °F 9% 30.22 in 10.0 mi Calm Calm - N/A   Clear
3:58 PM 60.8 °F - -0.9 °F 8% 30.21 in 9.0 mi Calm Calm - N/A   Clear
4:58 PM 57.7 °F - 1.6 °F 10% 30.20 in 10.0 mi SSW 5.8 mph - N/A   Clear
5:58 PM 44.4 °F 41.2 °F 4.6 °F 19% 30.21 in 10.0 mi West 5.8 mph - N/A   Clear
6:58 PM 42.1 °F - 5.4 °F 22% 30.21 in 10.0 mi Calm Calm - N/A   Clear
7:58 PM 36.0 °F - 5.4 °F 28% 30.20 in 10.0 mi East 2.3 mph - N/A   Clear
8:58 PM 36.9 °F 34.3 °F 6.8 °F 29% 30.22 in 10.0 mi ESE 3.5 mph - N/A   Clear
9:58 PM 36.0 °F 32.1 °F 5.7 °F 28% 30.24 in 10.0 mi ESE 4.6 mph - N/A   Clear
10:58 PM 33.3 °F - 6.1 °F 32% 30.24 in 10.0 mi Calm Calm - N/A   Clear
11:58 PM 29.7 °F - 6.4 °F 38% 30.25 in 10.0 mi WNW 2.3 mph - N/A   Clear